Regional Weather Roundup
Issued by NWS Little Rock, AR

Home | Current Version | Previous Version | Graphics & Text | Print | Product List | Glossary On
Versions: 1 2 3 4 5 6 7 8 9 10 11 12 13 14 15 16 17 18 19 20 21 22 23 24 25 26 27 28 29 30 31 32 33 34 35 36 37 38 39 40 41 42 43 44 45 46 47 48 49 50
909
ASUS44 KLZK 180612
RWRLZK

WEATHER ROUNDUP FOR ARKANSAS
NATIONAL WEATHER SERVICE LITTLE ROCK AR
100 AM CDT WED OCT 18 2017

NOTE: "FAIR" INDICATES FEW OR NO CLOUDS BELOW 12,000 FEET WITH NO
SIGNIFICANT WEATHER AND/OR OBSTRUCTIONS TO VISIBILITY.

ARZ001-003-010-029-180700-
NORTHWEST ARKANSAS

CITY           SKY/WX    TMP DP  RH WIND       PRES   REMARKS
FAYETTEVILLE   CLEAR     40  40 100 CALM      30.17F
6HR MIN TEMP:  39; 6HR MAX TEMP:  57;

FORT SMITH     CLEAR     52  47  83 NE3       30.18S
6HR MIN TEMP:  52; 6HR MAX TEMP:  64;

HARRISON       CLEAR     48  41  76 SE9       30.19F
6HR MIN TEMP:  46; 6HR MAX TEMP:  61;

BENTONVILLE    CLEAR     50  42  74 SE5       30.19F
6HR MIN TEMP:  49; 6HR MAX TEMP:  62;

ROGERS         CLEAR     47  44  90 CALM      30.18F
6HR MIN TEMP:  47; 6HR MAX TEMP:  63;

SILOAM SPGS    CLEAR     48  42  80 E5        30.18
6HR MIN TEMP:  47; 6HR MAX TEMP:  60;

HIGHFILL       CLEAR     45  42  89 CALM      30.18S
6HR MIN TEMP:  44; 6HR MAX TEMP:  61;

$$

ARZ004-005-016-180700-
NORTH CENTRAL ARKANSAS

CITY           SKY/WX    TMP DP  RH WIND       PRES   REMARKS
BATESVILLE     CLEAR     45  44  97 NW3       30.22F
6HR MIN TEMP:  45; 6HR MAX TEMP:  60;

FLIPPIN        CLEAR     44  40  85 CALM      30.20F
6HR MIN TEMP:  44; 6HR MAX TEMP:  64;

MTN HOME       CLEAR     50  42  74 CALM      30.19F
6HR MIN TEMP:  50; 6HR MAX TEMP:  61;

$$

ARZ040-041-180700-
WEST CENTRAL ARKANSAS

CITY           SKY/WX    TMP DP  RH WIND       PRES   REMARKS
MENA           CLEAR     43  41  93 CALM      30.21S
$$

ARZ009-017-025-026-028-180700-
NORTHEAST ARKANSAS

CITY           SKY/WX    TMP DP  RH WIND       PRES   REMARKS
JONESBORO      CLEAR     46  45  96 CALM      30.22F
6HR MIN TEMP:  45; 6HR MAX TEMP:  58;

NEWPORT        CLEAR     47  44  90 NW3       30.22F
6HR MIN TEMP:  47; 6HR MAX TEMP:  60;

WALNUT RIDGE   CLEAR     46  42  86 CALM      30.22F
6HR MIN TEMP:  45; 6HR MAX TEMP:  61;

BLYTHEVILLE    CLEAR     49  47  93 SE3       30.23S
6HR MIN TEMP:  49; 6HR MAX TEMP:  60;

$$

ARZ022-023-033-042-044-180700-
CENTRAL ARKANSAS

CITY           SKY/WX    TMP DP  RH WIND       PRES   REMARKS
LITTLE ROCK    CLEAR     48  47  96 CALM      30.22S
6HR MIN TEMP:  48; 6HR MAX TEMP:  61;

JACKSONVILLE   CLEAR     44  41  89 CALM      30.21S
6HR MIN TEMP:  44; 6HR MAX TEMP:  58;

SEARCY         CLEAR     45  45 100 CALM      30.22F
6HR MIN TEMP:  45; 6HR MAX TEMP:  58;

HOT SPRINGS    CLEAR     48  43  82 CALM      30.21F
6HR MIN TEMP:  47; 6HR MAX TEMP:  68;

RUSSELLVILLE   CLEAR     46  44  93 CALM      30.20S
6HR MIN TEMP:  46; 6HR MAX TEMP:  59;

CLINTON        CLOUDY    41  41 100 CALM      30.23S
$$

ARZ036-180700-
EAST ARKANSAS

CITY           SKY/WX    TMP DP  RH WIND       PRES   REMARKS
WEST MEMPHIS   PTCLDY    50  49  96 S3        30.21F
6HR MIN TEMP:  47; 6HR MAX TEMP:  57;

$$

ARZ050-053-066-070-073-180700-
SOUTHWEST ARKANSAS

CITY           SKY/WX    TMP DP  RH WIND       PRES   REMARKS
CAMDEN         CLOUDY    43  41  93 CALM      30.21S
TEXARKANA      CLEAR     55  43  63 SE7       30.20S
6HR MIN TEMP:  51; 6HR MAX TEMP:  62;

EL DORADO      CLEAR     45  45 100 CALM      30.21S
6HR MIN TEMP:  45; 6HR MAX TEMP:  60;

DE QUEEN       CLEAR     43  43 100 CALM      30.19R FOG
6HR MIN TEMP:  42; 6HR MAX TEMP:  63;

$$

ARZ056-057-069-180700-
SOUTHEAST ARKANSAS

CITY           SKY/WX    TMP DP  RH WIND       PRES   REMARKS
PINE BLUFF     CLEAR     45  43  93 CALM      30.22S
6HR MIN TEMP:  44; 6HR MAX TEMP:  61;

STUTTGART      CLEAR     52  45  77 SE3       30.21F
6HR MIN TEMP:  49; 6HR MAX TEMP:  62;

MONTICELLO     CLEAR     49  46  90 CALM      30.22S
6HR MIN TEMP:  48; 6HR MAX TEMP:  61;


$$






USA.gov is the U.S. government's official web portal to all federal, state and local government web resources and services.